| time (UTC) | temp F | wind direction | speed knots | gust knots | rain 1hr in | rain 24hr in | rain mn in | humidity % | barometer mb |
| 20260506160015 | 60 | 328 | 3.5 | 7.0 | 0.00 | 0.00 | 0.00 | 78 | 1019.8 |
| 20260506155705 | 60 | 295 | 3.5 | 6.1 | 0.00 | 0.00 | 0.00 | 78 | 1022.2 |
| 20260506154705 | 59 | 312 | 3.5 | 6.1 | 0.00 | 0.00 | 0.00 | 81 | 1022.2 |
| 20260506154508 | 59 | 331 | 2.6 | 7.8 | 0.00 | 0.00 | 0.00 | 81 | 1019.9 |
| 20260506153705 | 58 | 329 | 4.3 | 8.7 | 0.00 | 0.00 | 0.00 | 83 | 1022.3 |
| 20260506153204 | 58 | 315 | 4.3 | 8.7 | 0.00 | 0.00 | 0.00 | 84 | 1022.4 |
| 20260506153004 | 57 | 321 | 4.3 | 8.7 | 0.00 | 0.00 | 0.00 | 84 | 1020.0 |
| 20260506152704 | 58 | 309 | 5.2 | 8.7 | 0.00 | 0.00 | 0.00 | 85 | 1022.4 |
| 20260506152204 | 57 | 329 | 6.1 | 8.7 | 0.00 | 0.00 | 0.00 | 85 | 1022.3 |
| 20260506151704 | 57 | 305 | 7.0 | 8.7 | 0.00 | 0.00 | 0.00 | 86 | 1022.4 |
| 20260506151501 | 56 | 311 | 5.2 | 9.6 | 0.00 | 0.00 | 0.00 | 86 | 1020.0 |
| 20260506151206 | 57 | 311 | 6.1 | 8.7 | 0.00 | 0.00 | 0.00 | 86 | 1022.4 |
| 20260506150704 | 56 | 299 | 6.1 | 8.7 | 0.00 | 0.00 | 0.00 | 88 | 1022.4 |
| 20260506150205 | 56 | 295 | 6.1 | 8.7 | 0.00 | 0.00 | 0.00 | 88 | 1022.3 |
| 20260506150058 | 55 | 300 | 5.2 | 8.7 | 0.00 | 0.00 | 0.00 | 89 | 1020.0 |
| 20260506145705 | 55 | 295 | 4.3 | 7.8 | 0.00 | 0.00 | 0.00 | 89 | 1022.4 |
| 20260506145204 | 55 | 295 | 5.2 | 7.8 | 0.00 | 0.00 | 0.00 | 90 | 1022.4 |
| 20260506144705 | 55 | 283 | 4.3 | 7.8 | 0.00 | 0.00 | 0.00 | 90 | 1022.4 |
| 20260506144558 | 54 | 290 | 4.3 | 7.8 | 0.00 | 0.00 | 0.00 | 90 | 1020.1 |
| 20260506144204 | 54 | 295 | 5.2 | 7.8 | 0.00 | 0.00 | 0.00 | 90 | 1022.4 |
| 20260506143057 | 53 | 275 | 4.3 | 8.7 | 0.00 | 0.00 | 0.00 | 92 | 1020.0 |
| 20260506142704 | 53 | 295 | 6.1 | 8.7 | 0.00 | 0.00 | 0.00 | 92 | 1022.3 |
| 20260506142204 | 53 | 293 | 5.2 | 7.8 | 0.00 | 0.00 | 0.00 | 92 | 1022.2 |
| 20260506141704 | 53 | 283 | 5.2 | 6.1 | 0.00 | 0.00 | 0.00 | 93 | 1022.2 |
| 20260506141609 | 52 | 284 | 5.2 | 7.8 | 0.00 | 0.00 | 0.00 | 93 | 1019.9 |
| 20260506141205 | 52 | 295 | 5.2 | 6.1 | 0.00 | 0.00 | 0.00 | 93 | 1022.2 |
| 20260506140705 | 52 | 295 | 5.2 | 6.1 | 0.00 | 0.00 | 0.00 | 93 | 1022.0 |
| 20260506140205 | 51 | 295 | 3.5 | 5.2 | 0.00 | 0.00 | 0.00 | 93 | 1022.1 |
| 20260506140053 | 51 | 295 | 3.5 | 5.2 | 0.00 | 0.00 | 0.00 | 93 | 1019.7 |
| 20260506135205 | 51 | 295 | 3.5 | 4.3 | 0.00 | 0.00 | 0.00 | 93 | 1021.9 |
| 20260506134705 | 50 | 295 | 3.5 | 4.3 | 0.00 | 0.00 | 0.00 | 93 | 1021.8 |
| 20260506134551 | 50 | 295 | 2.6 | 4.3 | 0.00 | 0.00 | 0.00 | 93 | 1019.5 |
| 20260506134204 | 50 | 295 | 3.5 | 4.3 | 0.00 | 0.00 | 0.00 | 93 | 1021.8 |
| 20260506133704 | 50 | 295 | 3.5 | 4.3 | 0.00 | 0.00 | 0.00 | 93 | 1021.9 |
| 20260506133055 | 50 | 295 | 3.5 | 4.3 | 0.00 | 0.00 | 0.00 | 93 | 1019.4 |
| 20260506132705 | 50 | 295 | 3.5 | 4.3 | 0.00 | 0.00 | 0.00 | 94 | 1021.7 |
| 20260506131548 | 49 | 295 | 3.5 | 4.3 | 0.00 | 0.00 | 0.00 | 93 | 1019.2 |
| 20260506131204 | 49 | 295 | 3.5 | 3.5 | 0.00 | 0.00 | 0.00 | 93 | 1021.5 |
| 20260506130704 | 49 | 295 | 3.5 | 3.5 | 0.00 | 0.00 | 0.00 | 93 | 1021.5 |
| 20260506130204 | 49 | 295 | 2.6 | 3.5 | 0.00 | 0.00 | 0.00 | 93 | 1021.4 |
| 20260506130045 | 48 | 295 | 2.6 | 3.5 | 0.00 | 0.00 | 0.00 | 92 | 1019.0 |
| 20260506125205 | 49 | 295 | 2.6 | 4.3 | 0.00 | 0.00 | 0.00 | 93 | 1021.4 |
| 20260506124544 | 49 | 295 | 2.6 | 4.3 | 0.00 | 0.00 | 0.00 | 93 | 1019.0 |
| 20260506124205 | 49 | 295 | 3.5 | 4.3 | 0.00 | 0.00 | 0.00 | 92 | 1021.3 |
| 20260506123704 | 49 | 295 | 3.5 | 3.5 | 0.00 | 0.00 | 0.00 | 92 | 1021.3 |
| 20260506123204 | 49 | 295 | 3.5 | 3.5 | 0.00 | 0.00 | 0.00 | 92 | 1021.2 |
| 20260506123045 | 49 | 295 | 1.7 | 3.5 | 0.00 | 0.00 | 0.00 | 92 | 1018.9 |
| 20260506122205 | 50 | 295 | 1.7 | 3.5 | 0.00 | 0.00 | 0.00 | 92 | 1021.2 |
| 20260506121704 | 50 | 295 | 1.7 | 3.5 | 0.00 | 0.00 | 0.00 | 92 | 1021.1 |
| 20260506121543 | 50 | 295 | 0.9 | 3.5 | 0.00 | 0.00 | 0.00 | 92 | 1018.8 |
| 20260506121204 | 51 | 295 | 1.7 | 3.5 | 0.00 | 0.00 | 0.00 | 92 | 1021.1 |
| 20260506120204 | 50 | 295 | 1.7 | 2.6 | 0.00 | 0.00 | 0.00 | 92 | 1021.0 |
| 20260506120105 | 50 | 295 | 1.7 | 2.6 | 0.00 | 0.00 | 0.00 | 92 | 1018.7 |
| 20260506115704 | 51 | 295 | 1.7 | 3.5 | 0.00 | 0.00 | 0.00 | 92 | 1021.0 |
| 20260506115205 | 50 | 295 | 1.7 | 3.5 | 0.00 | 0.00 | 0.00 | 92 | 1020.9 |
| 20260506114704 | 50 | 295 | 2.6 | 3.5 | 0.00 | 0.00 | 0.00 | 92 | 1020.8 |
| 20260506114539 | 50 | 295 | 1.7 | 3.5 | 0.00 | 0.00 | 0.00 | 92 | 1018.6 |
| 20260506114204 | 50 | 295 | 2.6 | 3.5 | 0.00 | 0.00 | 0.00 | 92 | 1020.9 |
| 20260506113704 | 51 | 295 | 2.6 | 3.5 | 0.00 | 0.00 | 0.00 | 92 | 1020.9 |
| 20260506113204 | 50 | 295 | 2.6 | 2.6 | 0.00 | 0.00 | 0.00 | 92 | 1021.0 |
| 20260506113037 | 50 | 295 | 1.7 | 3.5 | 0.00 | 0.00 | 0.00 | 92 | 1018.6 |
| 20260506112704 | 50 | 295 | 1.7 | 0.0 | 0.00 | 0.00 | 0.00 | 92 | 1020.9 |
| 20260506111537 | 50 | 295 | 0.0 | 0.0 | 0.00 | 0.00 | 0.00 | 91 | 1018.5 |
| 20260506111205 | 50 | 295 | 0.0 | 0.0 | 0.00 | 0.00 | 0.00 | 91 | 1020.9 |
| 20260506110705 | 50 | 295 | 0.0 | 0.0 | 0.00 | 0.00 | 0.00 | 91 | 1020.9 |
| 20260506110205 | 50 | 295 | 0.0 | 0.0 | 0.00 | 0.00 | 0.00 | 91 | 1020.8 |
| 20260506110034 | 50 | 295 | 0.0 | 0.0 | 0.00 | 0.00 | 0.00 | 91 | 1018.5 |
| 20260506105704 | 51 | 295 | 0.0 | 0.0 | 0.00 | 0.00 | 0.00 | 91 | 1020.9 |
| 20260506105205 | 51 | 295 | 0.0 | 1.7 | 0.00 | 0.00 | 0.00 | 91 | 1020.9 |
| 20260506104704 | 51 | 295 | 0.0 | 1.7 | 0.00 | 0.00 | 0.00 | 90 | 1020.7 |
| 20260506104532 | 50 | 295 | 0.0 | 1.7 | 0.00 | 0.00 | 0.00 | 90 | 1018.4 |
| 20260506103704 | 51 | 295 | 0.9 | 2.6 | 0.00 | 0.00 | 0.00 | 90 | 1020.6 |
| 20260506103204 | 50 | 295 | 0.9 | 2.6 | 0.00 | 0.00 | 0.00 | 90 | 1020.5 |
| 20260506103032 | 50 | 295 | 0.9 | 2.6 | 0.00 | 0.00 | 0.00 | 89 | 1018.2 |
| 20260506102705 | 51 | 295 | 1.7 | 3.5 | 0.00 | 0.00 | 0.00 | 89 | 1020.5 |
| 20260506102205 | 51 | 295 | 1.7 | 4.3 | 0.00 | 0.00 | 0.00 | 89 | 1020.5 |
| 20260506101704 | 51 | 295 | 2.6 | 4.3 | 0.00 | 0.00 | 0.00 | 89 | 1020.5 |
| 20260506101528 | 51 | 295 | 2.6 | 4.3 | 0.00 | 0.00 | 0.00 | 89 | 1018.0 |
| 20260506101204 | 51 | 295 | 2.6 | 4.3 | 0.00 | 0.00 | 0.00 | 89 | 1020.3 |
| 20260506100704 | 51 | 295 | 3.5 | 4.3 | 0.00 | 0.00 | 0.00 | 89 | 1020.3 |
| 20260506100026 | 51 | 295 | 3.5 | 4.3 | 0.00 | 0.00 | 0.00 | 88 | 1017.9 |
| 20260506095704 | 52 | 295 | 3.5 | 4.3 | 0.00 | 0.00 | 0.00 | 88 | 1020.3 |
| 20260506095204 | 52 | 295 | 3.5 | 4.3 | 0.00 | 0.00 | 0.00 | 88 | 1020.3 |
| 20260506094532 | 51 | 295 | 2.6 | 4.3 | 0.00 | 0.00 | 0.00 | 87 | 1017.8 |
| 20260506094205 | 52 | 295 | 3.5 | 6.1 | 0.00 | 0.00 | 0.00 | 87 | 1020.2 |
| 20260506093704 | 52 | 295 | 4.3 | 6.1 | 0.00 | 0.00 | 0.00 | 87 | 1020.2 |
| 20260506093205 | 52 | 295 | 4.3 | 6.1 | 0.00 | 0.00 | 0.00 | 87 | 1020.2 |
| 20260506093040 | 52 | 295 | 3.5 | 7.0 | 0.00 | 0.00 | 0.00 | 87 | 1017.8 |
| 20260506092704 | 53 | 295 | 5.2 | 7.8 | 0.00 | 0.00 | 0.00 | 86 | 1020.1 |
| 20260506092204 | 53 | 295 | 5.2 | 7.8 | 0.00 | 0.00 | 0.00 | 87 | 1020.1 |
| 20260506091704 | 53 | 295 | 5.2 | 7.8 | 0.00 | 0.00 | 0.00 | 87 | 1020.1 |
| 20260506091524 | 53 | 295 | 5.2 | 7.8 | 0.00 | 0.00 | 0.00 | 87 | 1017.7 |
| 20260506091205 | 53 | 295 | 5.2 | 6.1 | 0.00 | 0.00 | 0.00 | 87 | 1020.2 |
| 20260506090705 | 53 | 295 | 5.2 | 6.1 | 0.00 | 0.00 | 0.00 | 88 | 1020.2 |
| 20260506090204 | 53 | 295 | 5.2 | 6.1 | 0.00 | 0.00 | 0.00 | 88 | 1020.1 |
| 20260506090019 | 52 | 295 | 5.2 | 7.0 | 0.00 | 0.00 | 0.00 | 88 | 1017.8 |
| 20260506085704 | 53 | 295 | 5.2 | 4.3 | 0.00 | 0.00 | 0.00 | 88 | 1020.2 |
| 20260506085205 | 52 | 295 | 3.5 | 2.6 | 0.00 | 0.00 | 0.00 | 87 | 1020.2 |
| 20260506084705 | 53 | 295 | 0.9 | 0.0 | 0.00 | 0.00 | 0.00 | 87 | 1020.4 |
| 20260506084515 | 52 | 295 | 0.0 | 0.0 | 0.00 | 0.00 | 0.00 | 86 | 1018.0 |
| 20260506084204 | 53 | 295 | 0.0 | 0.0 | 0.00 | 0.00 | 0.00 | 87 | 1020.3 |
| 20260506083705 | 53 | 295 | 0.0 | 0.0 | 0.00 | 0.00 | 0.00 | 87 | 1020.5 |
| 20260506083204 | 53 | 295 | 0.0 | 0.0 | 0.00 | 0.00 | 0.00 | 87 | 1020.5 |
| 20260506083015 | 53 | 295 | 0.0 | 0.0 | 0.00 | 0.00 | 0.00 | 87 | 1018.2 |
| 20260506082704 | 53 | 295 | 0.0 | 0.0 | 0.00 | 0.00 | 0.00 | 86 | 1020.5 |
| 20260506082205 | 53 | 295 | 0.0 | 0.0 | 0.00 | 0.00 | 0.00 | 85 | 1020.5 |
| 20260506081704 | 54 | 295 | 0.0 | 0.0 | 0.00 | 0.00 | 0.00 | 85 | 1020.5 |
| 20260506081511 | 54 | 295 | 0.0 | 0.0 | 0.00 | 0.00 | 0.00 | 85 | 1018.1 |
| 20260506080704 | 54 | 295 | 0.0 | 0.0 | 0.00 | 0.00 | 0.00 | 85 | 1020.3 |
| 20260506080204 | 55 | 295 | 0.0 | 0.0 | 0.00 | 0.00 | 0.00 | 85 | 1020.4 |
| 20260506073005 | 55 | 295 | 0.0 | 0.0 | 0.00 | 0.00 | 0.00 | 84 | 1017.8 |
| 20260506072704 | 55 | 295 | 0.0 | 0.0 | 0.00 | 0.00 | 0.00 | 84 | 1020.1 |
| 20260506071704 | 55 | 295 | 0.0 | 0.0 | 0.00 | 0.00 | 0.00 | 84 | 1020.0 |
| 20260506071506 | 55 | 295 | 0.0 | 0.0 | 0.00 | 0.00 | 0.00 | 84 | 1017.5 |
| 20260506071204 | 55 | 295 | 0.0 | 0.0 | 0.00 | 0.00 | 0.00 | 84 | 1019.9 |
| 20260506070704 | 55 | 295 | 0.0 | 0.0 | 0.00 | 0.00 | 0.00 | 83 | 1019.8 |
| 20260506070117 | 55 | 295 | 0.0 | 0.0 | 0.00 | 0.00 | 0.00 | 83 | 1017.2 |
| 20260506062204 | 56 | 295 | 0.0 | 0.0 | 0.00 | 0.00 | 0.00 | 81 | 1019.2 |
| 20260506061704 | 56 | 295 | 0.0 | 0.0 | 0.00 | 0.00 | 0.00 | 81 | 1019.2 |
| 20260506061559 | 56 | 295 | 0.0 | 0.0 | 0.00 | 0.00 | 0.00 | 81 | 1016.8 |
| 20260506061205 | 56 | 295 | 0.0 | 0.0 | 0.00 | 0.00 | 0.00 | 81 | 1019.2 |
| 20260506060705 | 56 | 295 | 0.0 | 0.0 | 0.00 | 0.00 | 0.00 | 82 | 1019.2 |
| 20260506060204 | 56 | 295 | 0.0 | 0.0 | 0.00 | 0.00 | 0.00 | 82 | 1019.2 |
| 20260506051205 | 57 | 295 | 0.0 | 0.0 | 0.00 | 0.00 | 0.00 | 79 | 1019.1 |
| 20260506050705 | 57 | 295 | 0.0 | 0.0 | 0.00 | 0.00 | 0.00 | 79 | 1019.1 |
| 20260506050205 | 57 | 295 | 0.0 | 0.0 | 0.00 | 0.00 | 0.00 | 79 | 1019.1 |
| 20260506044704 | 57 | 295 | 0.0 | 0.0 | 0.00 | 0.00 | 0.00 | 78 | 1018.9 |
| 20260506044557 | 57 | 295 | 0.0 | 0.0 | 0.00 | 0.00 | 0.00 | 78 | 1016.4 |
| 20260506044205 | 57 | 295 | 0.0 | 0.0 | 0.00 | 0.00 | 0.00 | 78 | 1018.9 |
| 20260506043704 | 57 | 295 | 0.0 | 0.0 | 0.00 | 0.00 | 0.00 | 78 | 1018.7 |
| 20260506043204 | 58 | 295 | 0.0 | 0.0 | 0.00 | 0.00 | 0.00 | 78 | 1018.7 |
| 20260506043049 | 57 | 295 | 0.0 | 0.0 | 0.00 | 0.00 | 0.00 | 77 | 1016.3 |
| 20260506042704 | 58 | 295 | 0.0 | 0.0 | 0.00 | 0.00 | 0.00 | 77 | 1018.7 |
| 20260506042204 | 58 | 295 | 0.0 | 0.0 | 0.00 | 0.00 | 0.00 | 77 | 1018.4 |
| 20260506041704 | 58 | 295 | 0.0 | 0.0 | 0.00 | 0.00 | 0.00 | 76 | 1018.5 |
| 20260506041551 | 58 | 295 | 0.0 | 0.0 | 0.00 | 0.00 | 0.00 | 76 | 1016.1 |
| 20260506040705 | 59 | 295 | 0.0 | 0.0 | 0.00 | 0.00 | 0.00 | 75 | 1018.3 |
| 20260506040204 | 59 | 295 | 0.0 | 0.0 | 0.00 | 0.00 | 0.00 | 75 | 1018.2 |
| 20260506040045 | 58 | 295 | 0.0 | 0.0 | 0.00 | 0.00 | 0.00 | 75 | 1015.8 |
| 20260506035704 | 59 | 295 | 0.0 | 6.1 | 0.00 | 0.00 | 0.00 | 75 | 1018.3 |
| 20260506035204 | 59 | 295 | 0.0 | 6.1 | 0.00 | 0.00 | 0.00 | 74 | 1018.3 |
| 20260506034704 | 59 | 295 | 0.0 | 7.8 | 0.00 | 0.00 | 0.00 | 74 | 1018.2 |
| 20260506034542 | 59 | 295 | 1.7 | 7.0 | 0.00 | 0.00 | 0.00 | 74 | 1015.7 |
| 20260506034205 | 59 | 295 | 5.2 | 7.8 | 0.00 | 0.00 | 0.00 | 74 | 1018.1 |
| 20260506033705 | 60 | 295 | 5.2 | 8.7 | 0.00 | 0.00 | 0.00 | 73 | 1018.0 |
| 20260506033040 | 59 | 295 | 5.2 | 8.7 | 0.00 | 0.00 | 0.00 | 73 | 1015.4 |
| 20260506032705 | 60 | 295 | 6.1 | 11.3 | 0.00 | 0.00 | 0.00 | 72 | 1017.7 |
| 20260506031554 | 60 | 295 | 7.8 | 11.3 | 0.00 | 0.00 | 0.00 | 71 | 1015.1 |
| 20260506031204 | 61 | 295 | 7.8 | 10.4 | 0.00 | 0.00 | 0.00 | 71 | 1017.5 |
| 20260506030205 | 61 | 295 | 8.7 | 11.3 | 0.00 | 0.00 | 0.00 | 69 | 1017.4 |
| 20260506030055 | 61 | 295 | 7.8 | 11.3 | 0.00 | 0.00 | 0.00 | 69 | 1014.9 |
| 20260506025704 | 62 | 295 | 7.8 | 11.3 | 0.00 | 0.00 | 0.00 | 69 | 1017.3 |
| 20260506025204 | 62 | 288 | 9.6 | 10.4 | 0.00 | 0.00 | 0.00 | 69 | 1017.3 |
| 20260506024705 | 62 | 278 | 7.0 | 11.3 | 0.00 | 0.00 | 0.00 | 68 | 1017.2 |
| 20260506024539 | 61 | 281 | 7.0 | 10.4 | 0.00 | 0.00 | 0.00 | 68 | 1014.8 |
| 20260506024205 | 62 | 295 | 7.8 | 11.3 | 0.00 | 0.00 | 0.00 | 68 | 1017.1 |
| 20260506023704 | 62 | 295 | 8.7 | 11.3 | 0.00 | 0.00 | 0.00 | 67 | 1017.2 |
| 20260506023039 | 62 | 281 | 7.8 | 11.3 | 0.00 | 0.00 | 0.00 | 66 | 1014.7 |
| 20260506021704 | 63 | 273 | 7.8 | 13.9 | 0.00 | 0.00 | 0.00 | 64 | 1017.0 |
| 20260506021537 | 63 | 274 | 10.4 | 13.9 | 0.00 | 0.00 | 0.00 | 64 | 1014.5 |
| 20260506020704 | 64 | 285 | 9.6 | 14.8 | 0.00 | 0.00 | 0.00 | 63 | 1016.9 |
| 20260506020036 | 65 | 284 | 9.6 | 13.0 | 0.00 | 0.00 | 0.00 | 62 | 1014.6 |
| 20260506015204 | 66 | 283 | 10.4 | 13.9 | 0.00 | 0.00 | 0.00 | 61 | 1017.1 |
| 20260506014704 | 66 | 262 | 9.6 | 13.0 | 0.00 | 0.00 | 0.00 | 60 | 1017.1 |
| 20260506014536 | 66 | 274 | 11.3 | 13.9 | 0.00 | 0.00 | 0.00 | 59 | 1014.6 |
| 20260506014204 | 66 | 271 | 8.7 | 13.0 | 0.00 | 0.00 | 0.00 | 60 | 1016.9 |
| 20260506013704 | 66 | 280 | 11.3 | 11.3 | 0.00 | 0.00 | 0.00 | 60 | 1016.8 |
| 20260506013205 | 66 | 295 | 7.8 | 9.6 | 0.00 | 0.00 | 0.00 | 60 | 1016.9 |
| 20260506013041 | 65 | 295 | 6.1 | 9.6 | 0.00 | 0.00 | 0.00 | 61 | 1014.6 |
| 20260506012704 | 66 | 295 | 5.2 | 9.6 | 0.00 | 0.00 | 0.00 | 61 | 1016.9 |
| 20260506012204 | 65 | 298 | 5.2 | 9.6 | 0.00 | 0.00 | 0.00 | 61 | 1016.9 |
| 20260506011705 | 65 | 289 | 7.8 | 10.4 | 0.00 | 0.00 | 0.00 | 61 | 1017.0 |
| 20260506011534 | 65 | 267 | 7.0 | 8.7 | 0.00 | 0.00 | 0.00 | 61 | 1014.5 |
| 20260506011204 | 66 | 266 | 5.2 | 10.4 | 0.00 | 0.00 | 0.00 | 60 | 1017.1 |
| 20260506010704 | 66 | 266 | 5.2 | 10.4 | 0.00 | 0.00 | 0.00 | 61 | 1017.0 |
| 20260506010205 | 66 | 295 | 7.0 | 10.4 | 0.00 | 0.00 | 0.00 | 60 | 1017.1 |
| 20260506010035 | 65 | 247 | 6.1 | 10.4 | 0.00 | 0.00 | 0.00 | 60 | 1014.6 |
| 20260506005704 | 66 | 271 | 7.0 | 10.4 | 0.00 | 0.00 | 0.00 | 60 | 1017.0 |
| 20260506005204 | 66 | 249 | 4.3 | 9.6 | 0.00 | 0.00 | 0.00 | 60 | 1017.0 |
| 20260506004704 | 66 | 282 | 5.2 | 11.3 | 0.00 | 0.00 | 0.00 | 59 | 1017.0 |
| 20260506004603 | 66 | 240 | 6.1 | 9.6 | 0.00 | 0.00 | 0.00 | 59 | 1014.5 |
| 20260506004204 | 67 | 282 | 5.2 | 12.2 | 0.00 | 0.00 | 0.00 | 59 | 1017.0 |
| 20260506003704 | 67 | 278 | 6.1 | 12.2 | 0.00 | 0.00 | 0.00 | 59 | 1017.0 |
| 20260506003205 | 66 | 266 | 6.1 | 11.3 | 0.00 | 0.00 | 0.00 | 59 | 1017.0 |
| 20260506003033 | 66 | 280 | 8.7 | 12.2 | 0.00 | 0.00 | 0.00 | 59 | 1014.6 |
| 20260506002704 | 66 | 301 | 7.8 | 10.4 | 0.00 | 0.00 | 0.00 | 59 | 1016.9 |
| 20260506002204 | 66 | 269 | 7.8 | 10.4 | 0.00 | 0.00 | 0.00 | 59 | 1016.9 |
| 20260506001532 | 65 | 290 | 7.0 | 10.4 | 0.00 | 0.00 | 0.00 | 60 | 1014.5 |
| 20260506001205 | 66 | 302 | 5.2 | 10.4 | 0.00 | 0.00 | 0.00 | 60 | 1017.0 |
| 20260506000705 | 66 | 296 | 6.1 | 11.3 | 0.00 | 0.00 | 0.00 | 60 | 1016.9 |
| 20260506000033 | 66 | 295 | 6.1 | 11.3 | 0.00 | 0.00 | 0.00 | 59 | 1014.4 |
| 20260505235704 | 66 | 290 | 7.8 | 11.3 | 0.00 | 0.00 | 0.00 | 59 | 1016.8 |
| 20260505235204 | 66 | 295 | 4.3 | 10.4 | 0.00 | 0.00 | 0.00 | 59 | 1016.8 |
| 20260505234704 | 66 | 316 | 7.0 | 13.0 | 0.00 | 0.00 | 0.00 | 59 | 1016.7 |
| 20260505234602 | 66 | 283 | 6.1 | 9.6 | 0.00 | 0.00 | 0.00 | 59 | 1014.3 |
| 20260505234205 | 66 | 295 | 7.0 | 13.0 | 0.00 | 0.00 | 0.00 | 59 | 1016.8 |
| 20260505233705 | 67 | 326 | 7.8 | 13.0 | 0.00 | 0.00 | 0.00 | 58 | 1016.8 |
| 20260505233032 | 66 | 295 | 8.7 | 12.2 | 0.00 | 0.00 | 0.00 | 58 | 1014.3 |
| 20260505232704 | 67 | 311 | 7.8 | 10.4 | 0.00 | 0.00 | 0.00 | 58 | 1016.7 |
| 20260505232204 | 67 | 346 | 6.1 | 10.4 | 0.00 | 0.00 | 0.00 | 57 | 1016.8 |
| 20260505231704 | 68 | 326 | 7.0 | 9.6 | 0.00 | 0.00 | 0.00 | 55 | 1016.9 |
| 20260505231531 | 67 | 337 | 4.3 | 8.7 | 0.00 | 0.00 | 0.00 | 56 | 1014.4 |
| 20260505231204 | 67 | 295 | 4.3 | 9.6 | 0.00 | 0.00 | 0.00 | 56 | 1016.7 |
| 20260505230705 | 67 | 6 | 5.2 | 10.4 | 0.00 | 0.00 | 0.00 | 56 | 1016.8 |
| 20260505230028 | 67 | 348 | 5.2 | 9.6 | 0.00 | 0.00 | 0.00 | 56 | 1014.4 |
| 20260505225704 | 68 | 334 | 0.9 | 10.4 | 0.00 | 0.00 | 0.00 | 55 | 1016.8 |
| 20260505225204 | 68 | 276 | 7.8 | 12.2 | 0.00 | 0.00 | 0.00 | 56 | 1016.8 |
| 20260505224704 | 68 | 279 | 5.2 | 12.2 | 0.00 | 0.00 | 0.00 | 56 | 1016.9 |
| 20260505224532 | 67 | 295 | 5.2 | 12.2 | 0.00 | 0.00 | 0.00 | 57 | 1014.4 |
| 20260505223704 | 67 | 271 | 5.2 | 12.2 | 0.00 | 0.00 | 0.00 | 57 | 1016.9 |
| 20260505223204 | 68 | 306 | 7.0 | 14.8 | 0.00 | 0.00 | 0.00 | 56 | 1016.9 |
| 20260505223027 | 67 | 280 | 7.8 | 11.3 | 0.00 | 0.00 | 0.00 | 57 | 1014.5 |
| 20260505222205 | 67 | 295 | 9.6 | 14.8 | 0.00 | 0.00 | 0.00 | 57 | 1017.0 |
| 20260505221704 | 67 | 302 | 11.3 | 15.6 | 0.00 | 0.00 | 0.00 | 57 | 1017.0 |
| 20260505221528 | 67 | 300 | 6.1 | 13.0 | 0.00 | 0.00 | 0.00 | 56 | 1014.6 |
| 20260505220704 | 67 | 269 | 9.6 | 15.6 | 0.00 | 0.00 | 0.00 | 56 | 1017.0 |
| 20260505220206 | 67 | 278 | 7.8 | 9.6 | 0.00 | 0.00 | 0.00 | 57 | 1017.0 |
| 20260505220026 | 66 | 295 | 8.7 | 11.3 | 0.00 | 0.00 | 0.00 | 57 | 1014.6 |
| 20260505215704 | 66 | 295 | 7.0 | 9.6 | 0.00 | 0.00 | 0.00 | 57 | 1017.1 |
| 20260505215204 | 66 | 305 | 6.1 | 9.6 | 0.00 | 0.00 | 0.00 | 56 | 1017.1 |
| 20260505214705 | 66 | 279 | 7.8 | 7.8 | 0.00 | 0.00 | 0.00 | 57 | 1017.1 |
| 20260505214525 | 66 | 304 | 6.1 | 8.7 | 0.00 | 0.00 | 0.00 | 57 | 1014.7 |
| 20260505214205 | 66 | 295 | 3.5 | 10.4 | 0.00 | 0.00 | 0.00 | 57 | 1017.1 |
| 20260505213204 | 68 | 301 | 4.3 | 10.4 | 0.00 | 0.00 | 0.00 | 54 | 1017.2 |
| 20260505213024 | 67 | 264 | 3.5 | 10.4 | 0.00 | 0.00 | 0.00 | 53 | 1014.8 |
| 20260505212704 | 68 | 242 | 8.7 | 10.4 | 0.00 | 0.00 | 0.00 | 54 | 1017.2 |
| 20260505211704 | 67 | 255 | 6.1 | 6.1 | 0.00 | 0.00 | 0.00 | 55 | 1017.3 |
| 20260505211521 | 67 | 266 | 6.1 | 10.4 | 0.00 | 0.00 | 0.00 | 55 | 1014.8 |
| 20260505211205 | 67 | 264 | 2.6 | 5.2 | 0.00 | 0.00 | 0.00 | 56 | 1017.3 |
| 20260505210704 | 66 | 295 | 3.5 | 7.8 | 0.00 | 0.00 | 0.00 | 58 | 1017.2 |
| 20260505210204 | 65 | 311 | 0.0 | 7.8 | 0.00 | 0.00 | 0.00 | 57 | 1017.2 |
| 20260505210022 | 65 | 318 | 0.0 | 7.0 | 0.00 | 0.00 | 0.00 | 56 | 1014.9 |
| 20260505205705 | 66 | 311 | 1.7 | 7.8 | 0.00 | 0.00 | 0.00 | 56 | 1017.4 |
| 20260505204705 | 66 | 165 | 2.6 | 4.3 | 0.00 | 0.00 | 0.00 | 57 | 1017.5 |
| 20260505204525 | 65 | 160 | 1.7 | 5.2 | 0.00 | 0.00 | 0.00 | 58 | 1015.0 |
| 20260505204205 | 65 | 145 | 1.7 | 7.8 | 0.00 | 0.00 | 0.00 | 57 | 1017.5 |
| 20260505203704 | 64 | 127 | 0.9 | 8.7 | 0.00 | 0.00 | 0.00 | 58 | 1017.6 |
| 20260505203204 | 66 | 190 | 1.7 | 8.7 | 0.00 | 0.00 | 0.00 | 54 | 1017.5 |
| 20260505203020 | 66 | 233 | 3.5 | 8.7 | 0.00 | 0.00 | 0.00 | 55 | 1015.1 |
| 20260505202704 | 66 | 231 | 3.5 | 8.7 | 0.00 | 0.00 | 0.00 | 55 | 1017.5 |
| 20260505202204 | 66 | 271 | 5.2 | 8.7 | 0.00 | 0.00 | 0.00 | 58 | 1017.5 |
| 20260505201705 | 65 | 238 | 6.1 | 8.7 | 0.00 | 0.00 | 0.00 | 59 | 1017.5 |
| 20260505201519 | 64 | 238 | 1.7 | 8.7 | 0.00 | 0.00 | 0.00 | 59 | 1015.1 |
| 20260505201205 | 65 | 296 | 3.5 | 8.7 | 0.00 | 0.00 | 0.00 | 58 | 1017.5 |
| 20260505200705 | 65 | 283 | 6.1 | 7.8 | 0.00 | 0.00 | 0.00 | 60 | 1017.5 |
| 20260505200204 | 65 | 299 | 3.5 | 10.4 | 0.00 | 0.00 | 0.00 | 60 | 1017.6 |
| 20260505200022 | 64 | 282 | 4.3 | 7.8 | 0.00 | 0.00 | 0.00 | 60 | 1015.2 |
| 20260505195205 | 63 | 295 | 4.3 | 10.4 | 0.00 | 0.00 | 0.00 | 62 | 1017.8 |
| 20260505194705 | 63 | 261 | 0.9 | 7.8 | 0.00 | 0.00 | 0.00 | 63 | 1017.8 |
| 20260505194614 | 62 | 266 | 0.0 | 7.0 | 0.00 | 0.00 | 0.00 | 62 | 1015.4 |
| 20260505194204 | 64 | 272 | 2.6 | 7.8 | 0.00 | 0.00 | 0.00 | 60 | 1017.8 |
| 20260505193704 | 64 | 241 | 4.3 | 9.6 | 0.00 | 0.00 | 0.00 | 61 | 1017.9 |
| 20260505193204 | 63 | 235 | 3.5 | 9.6 | 0.00 | 0.00 | 0.00 | 62 | 1017.9 |
| 20260505193012 | 63 | 265 | 3.5 | 9.6 | 0.00 | 0.00 | 0.00 | 61 | 1015.4 |
| 20260505192704 | 64 | 279 | 5.2 | 9.6 | 0.00 | 0.00 | 0.00 | 61 | 1017.8 |
| 20260505192204 | 64 | 266 | 7.0 | 9.6 | 0.00 | 0.00 | 0.00 | 60 | 1017.8 |
| 20260505191704 | 64 | 278 | 7.0 | 8.7 | 0.00 | 0.00 | 0.00 | 61 | 1017.7 |
| 20260505191511 | 63 | 278 | 3.5 | 8.7 | 0.00 | 0.00 | 0.00 | 61 | 1015.3 |
| 20260505191205 | 64 | 235 | 5.2 | 9.6 | 0.00 | 0.00 | 0.00 | 61 | 1017.7 |
| 20260505190705 | 64 | 238 | 1.7 | 10.4 | 0.00 | 0.00 | 0.00 | 62 | 1017.8 |
| 20260505190204 | 64 | 280 | 4.3 | 10.4 | 0.00 | 0.00 | 0.00 | 62 | 1017.8 |
| 20260505190009 | 63 | 290 | 6.1 | 10.4 | 0.00 | 0.00 | 0.00 | 62 | 1015.4 |
| 20260505185705 | 64 | 295 | 7.0 | 10.4 | 0.00 | 0.00 | 0.00 | 63 | 1017.8 |
| 20260505185205 | 63 | 295 | 2.6 | 8.7 | 0.00 | 0.00 | 0.00 | 64 | 1017.7 |
| 20260505184704 | 63 | 295 | 3.5 | 8.7 | 0.00 | 0.00 | 0.00 | 62 | 1017.7 |
| 20260505184515 | 63 | 262 | 2.6 | 7.8 | 0.00 | 0.00 | 0.00 | 63 | 1015.3 |
| 20260505184205 | 63 | 295 | 4.3 | 8.7 | 0.00 | 0.00 | 0.00 | 66 | 1017.6 |
| 20260505183705 | 63 | 312 | 5.2 | 7.8 | 0.00 | 0.00 | 0.00 | 62 | 1017.7 |
| 20260505183205 | 63 | 295 | 2.6 | 7.8 | 0.00 | 0.00 | 0.00 | 64 | 1017.6 |
| 20260505183015 | 62 | 283 | 3.5 | 7.8 | 0.00 | 0.00 | 0.00 | 63 | 1015.3 |
| 20260505182704 | 62 | 295 | 5.2 | 8.7 | 0.00 | 0.00 | 0.00 | 64 | 1017.7 |
| 20260505182205 | 62 | 295 | 2.6 | 8.7 | 0.00 | 0.00 | 0.00 | 64 | 1017.7 |
| 20260505181705 | 62 | 347 | 4.3 | 8.7 | 0.00 | 0.00 | 0.00 | 66 | 1017.6 |
| 20260505181503 | 61 | 300 | 2.6 | 8.7 | 0.00 | 0.00 | 0.00 | 64 | 1015.1 |
| 20260505180704 | 61 | 290 | 5.2 | 7.8 | 0.00 | 0.00 | 0.00 | 66 | 1017.5 |
| 20260505180205 | 61 | 302 | 2.6 | 6.1 | 0.00 | 0.00 | 0.00 | 67 | 1017.5 |
| 20260505180001 | 60 | 295 | 1.7 | 7.8 | 0.00 | 0.00 | 0.00 | 68 | 1015.1 |
| 20260505175205 | 60 | 295 | 4.3 | 7.8 | 0.00 | 0.00 | 0.00 | 70 | 1017.5 |
| 20260505174704 | 60 | 295 | 3.5 | 8.7 | 0.00 | 0.00 | 0.00 | 70 | 1017.5 |
| 20260505174600 | 59 | 295 | 3.5 | 7.8 | 0.00 | 0.00 | 0.00 | 70 | 1015.1 |
| 20260505174204 | 60 | 295 | 4.3 | 8.7 | 0.00 | 0.00 | 0.00 | 69 | 1017.4 |
| 20260505173705 | 60 | 295 | 4.3 | 9.6 | 0.00 | 0.00 | 0.00 | 70 | 1017.3 |
| 20260505173205 | 59 | 295 | 6.1 | 9.6 | 0.00 | 0.00 | 0.00 | 70 | 1017.5 |
| 20260505173059 | 59 | 295 | 6.1 | 9.6 | 0.00 | 0.00 | 0.00 | 70 | 1015.0 |
| 20260505172705 | 59 | 295 | 7.0 | 9.6 | 0.00 | 0.00 | 0.00 | 71 | 1017.4 |
| 20260505172204 | 59 | 295 | 7.8 | 9.6 | 0.00 | 0.00 | 0.00 | 71 | 1017.4 |
| 20260505171705 | 59 | 358 | 5.2 | 9.6 | 0.00 | 0.00 | 0.00 | 72 | 1017.3 |
| 20260505171557 | 59 | 358 | 6.1 | 9.6 | 0.00 | 0.00 | 0.00 | 72 | 1014.9 |
| 20260505171205 | 59 | 358 | 7.8 | 10.4 | 0.00 | 0.00 | 0.00 | 71 | 1017.2 |
| 20260505170100 | 60 | 334 | 6.1 | 10.4 | 0.00 | 0.00 | 0.00 | 64 | 1014.8 |
| 20260505165704 | 60 | 285 | 6.1 | 9.6 | 0.00 | 0.00 | 0.00 | 64 | 1017.2 |
| 20260505165205 | 60 | 278 | 5.2 | 9.6 | 0.00 | 0.00 | 0.00 | 64 | 1017.1 |
| 20260505164704 | 61 | 295 | 7.0 | 11.3 | 0.00 | 0.00 | 0.00 | 63 | 1017.1 |
| 20260505164620 | 61 | 300 | 5.2 | 9.6 | 0.00 | 0.00 | 0.00 | 64 | 1014.7 |
| 20260505164204 | 61 | 292 | 7.8 | 11.3 | 0.00 | 0.00 | 0.00 | 63 | 1017.1 |
| 20260505163704 | 61 | 295 | 6.1 | 12.2 | 0.00 | 0.00 | 0.00 | 65 | 1017.0 |
| 20260505163204 | 60 | 295 | 7.8 | 12.2 | 0.00 | 0.00 | 0.00 | 66 | 1017.1 |
| 20260505163052 | 60 | 280 | 7.8 | 11.3 | 0.00 | 0.00 | 0.00 | 67 | 1014.7 |
| 20260505162704 | 60 | 299 | 9.6 | 12.2 | 0.00 | 0.00 | 0.00 | 67 | 1017.1 |
| 20260505162204 | 59 | 278 | 9.6 | 11.3 | 0.00 | 0.00 | 0.00 | 70 | 1017.0 |
| 20260505161548 | 59 | 295 | 7.0 | 10.4 | 0.00 | 0.00 | 0.00 | 71 | 1014.7 |
| 20260505161204 | 59 | 295 | 5.2 | 7.8 | 0.00 | 0.00 | 0.00 | 74 | 1017.0 |
| 20260505160704 | 58 | 289 | 3.5 | 7.8 | 0.00 | 0.00 | 0.00 | 77 | 1017.0 |
| 20260505160204 | 58 | 279 | 3.5 | 4.3 | 0.00 | 0.00 | 0.00 | 78 | 1017.0 |